Regional Weather Roundup
Issued by NWS

Home | Current Version | Previous Version | Text Only | Print | Product List | Glossary On
Versions: 1 2 3 4 5 6 7 8 9 10 11 12 13 14 15 16 17 18 19 20 21 22 23 24 25 26 27 28 29 30 31 32 33 34 35 36 37 38 39 40 41 42 43 44 45 46 47 48 49 50
000
ASUS43 KLMK 280910
RWRKY
KENTUCKY REGIONAL WEATHER ROUNDUP
NATIONAL WEATHER SERVICE LOUISVILLE KY
500 AM EDT TUE MAR 28 2017

NOTE "FAIR" INDICATES FEW OR NO CLOUDS BELOW 12,000 FEET
WITH NO SIGNIFICANT WEATHER AND/OR OBSTRUCTIONS TO VISIBILITY.

KYZ001>023-026-027-061>063-070>075-281000-
WESTERN AND SOUTH CENTRAL KENTUCKY

CITY           SKY/WX    TMP DP  RH WIND       PRES   REMARKS
PADUCAH        MOCLDY    56  51  84 NW7       29.91S
HENDERSON      CLOUDY    55  52  88 NW9       29.88R
OWENSBORO        N/A    N/A N/A N/A MISG        N/A
HOPKINSVILLE   CLOUDY    55  55 100 W6        29.90S
BOWLING GREEN  CLOUDY    56  54  93 NW3       29.89R
GLASGOW        MOCLDY   N/A N/A N/A CALM      29.89R FOG
$$

KYZ024-025-028>034-038-045-046-053-281000-
NORTH CENTRAL KENTUCKY

CITY           SKY/WX    TMP DP  RH WIND       PRES   REMARKS
LOUISVILLE/SDF CLOUDY    57  54  89 W7        29.86R
LOUISVILLE/LOU CLOUDY    57  54  89 W5        29.86R
FORT KNOX      CLOUDY    55  55 100 W3        29.86R FOG
$$

KYZ035>037-039>044-047>052-055>060-089>105-281000-
NORTHEAST KENTUCKY

CITY           SKY/WX    TMP DP  RH WIND       PRES   REMARKS
LEXINGTON      CLOUDY    56  53  90 SW6       29.85S
COVINGTON      CLOUDY    55  54  96 SW5       29.83S
FRANKFORT      CLOUDY    55  52  89 SW7       29.85R
$$

KYZ054-064>069-076>088-106>120-281000-
SOUTHEAST KENTUCKY

CITY           SKY/WX    TMP DP  RH WIND       PRES   REMARKS
JACKSON        CLOUDY    55  54  96 VRB3      29.85S
LONDON         CLOUDY    57  52  83 SW9       29.87R
SOMERSET       CLOUDY    54  54 100 W6        29.90R
MIDDLESBORO    PTCLDY    57  54  89 CALM      29.89S
MONTICELLO     LGT RAIN  57  55  93 W6        29.90R
$$





USA.gov is the U.S. government's official web portal to all federal, state and local government web resources and services.